Regional Weather Roundup
Issued by NWS

Home | Current Version | Previous Version | Graphics & Text | Print | Product List | Glossary On
Versions: 1 2 3 4 5 6 7 8 9 10 11 12 13 14 15 16 17 18 19 20 21 22 23 24 25 26 27 28 29 30 31 32 33 34 35 36 37 38 39 40 41 42 43 44 45 46 47 48 49 50
000
ASUS45 KPSR 290800
RWRAZ

ARIZONA REGIONAL HOURLY WEATHER ROUNDUP
NATIONAL WEATHER SERVICE PHOENIX AZ
100 AM MST SUN MAR 29 2015

NOTE: FAIR INDICATES FEW OR NO CLOUDS BELOW 12,000 FEET WITH NO
SIGNIFICANT WEATHER AND/OR OBSTRUCTIONS TO VISIBILITY.

AZZ001>003-036-290900-
NORTHWEST ARIZONA

CITY           SKY/WX    TMP DP  RH WIND       PRES   REMARKS
KINGMAN        CLEAR     57  22  25 SE8       30.13S
$$

AZZ004>008-015-016-018-290900-
NORTH CENTRAL ARIZONA

CITY           SKY/WX    TMP DP  RH WIND       PRES   REMARKS
GRAND CANYON   CLEAR     30  19  63 CALM      30.31R
WILLIAMS       CLEAR     39  21  48 S8        30.37F WCI  34
PRESCOTT       CLEAR     47  28  47 S6        30.23S
FLAGSTAFF      NOT AVBL
PAYSON         CLEAR     52  21  30 CALM      30.25S
PAGE           CLEAR     62  21  20 N3        30.14R
$$

AZZ009>014-017-290900-
NORTHEAST ARIZONA

CITY           SKY/WX    TMP DP  RH WIND       PRES   REMARKS
WINSLOW        NOT AVBL
SAINT JOHNS    PTCLDY    54   9  16 SW14      30.23S
WINDOW ROCK    CLEAR     45  14  28 CALM      30.27S
SHOW LOW       CLEAR     48  12  23 SW7       30.31S
$$

AZZ023-290900-
GREATER PHOENIX AREA

CITY           SKY/WX    TMP DP  RH WIND       PRES   REMARKS
PHOENIX        PTCLDY    72  31  22 E6        29.97S
DEER VALLEY    CLEAR     71  27  19 N7        30.00S
SCOTTSDALE     CLEAR     68  37  32 CALM      30.01S
$$

AZZ027-028-290900-
SOUTHWEST MARICOPA COUNTY AND PINAL COUNTY

CITY           SKY/WX    TMP DP  RH WIND       PRES   REMARKS
CASA GRANDE    CLEAR     61  25  25 CALM      30.00S
$$

AZZ503-504-507>509-290900-
SOUTHEAST ARIZONA

CITY           SKY/WX    TMP DP  RH WIND       PRES   REMARKS
TUCSON         CLEAR     65  24  21 SE8       30.10S
NOGALES        PTCLDY    56  24  29 CALM      30.17F
SAFFORD        PTCLDY    60  14  16 CALM      30.10R
$$

AZZ020-021-025-026-031-290900-
SOUTHWEST ARIZONA

CITY           SKY/WX    TMP DP  RH WIND       PRES   REMARKS
YUMA           NOT AVBL
$$

CAZ031-033-041-043-047-048-061-290900-
SOUTHERN CALIFORNIA

CITY           SKY/WX    TMP DP  RH WIND       PRES   REMARKS
DOWNTOWN L.A.  CLEAR     61  58  90 CALM      30.04F
L.A. AIRPORT   PTCLDY    58  57  97 SW5       30.05S FOG
SAN DIEGO      CLOUDY    64  59  83 NW3       30.07R
BURBANK        CLEAR     63  36  36 CALM      30.04F
ONTARIO        PTCLDY    66  48  52 CALM      30.05F
RIVERSIDE      PTCLDY    62  39  42 E3        30.06S
PALM SPRINGS   PTCLDY    75  35  23 SW3       29.97S
EL CENTRO NAS  CLEAR     73  26  17 W10       29.93S
IMPERIAL       CLEAR     70  36  28 NW7       29.93S
BLYTHE         PTCLDY    75  30  19 CALM      29.94S
$$

NVZ020-UTZ003-290900-
SOUTHERN NEVADA-UTAH

CITY           SKY/WX    TMP DP  RH WIND       PRES   REMARKS
LAS VEGAS      NOT AVBL
SALT LAKE CITY CLEAR     48  23  37 NW10      30.28R
$$

NMZ009-TXZ055-290900-
NEW MEXICO-WEST TEXAS

CITY           SKY/WX    TMP DP  RH WIND       PRES   REMARKS
ALBUQUERQUE    CLEAR     59  14  17 SW10      30.17R
EL PASO        CLEAR     77   3   5 W18G25    30.07F
$$


........................KEY........................
SKY/WX - SKY CONDITION/WEATHER
TMP    - TEMPERATURE IN FAHRENHEIT
DP     - DEW POINT IN FAHRENHEIT
RH     - RELATIVE HUMIDITY IN PERCENT
WIND   - DIRECTION AND SPEED IN MILES PER HOUR (MPH)
VRB    - VARIABLE WIND DIRECTION
PRES   - MEAN SEA LEVEL PRESSURE IN INCHES OF MERCURY
         F - FALLING PRESSURE   R - RISING PRESSURE
         S - STEADY PRESSURE
VSB    - VISIBILITY IN MILES
HX     - HEAT INDEX IN FAHRENHEIT
WCI    - WIND CHILL INDEX IN FAHRENHEIT
TC     - TEMPERATURE IN CELSIUS WHICH IS ALSO KNOWN AS
         TEMPERATURE IN CENTIGRADE
AFB    - AIR FORCE BASE
         LUKE AFB IS LUKE AIR FORCE BASE
         DAVIS-MONTHAN IS DAVIS-MONTHAN AIR FORCE BASE
NAS    - NAVAL AIR STATION
         EL CENTRO NAS IS EL CENTRO NAVAL AIR STATION
N/A    - NOT AVAILABLE




USA.gov is the U.S. government's official web portal to all federal, state and local government web resources and services.